Simultaneous Nadir Overpasses (SNOs) Predictions

Prediction of SNOs between METOP-A and TERRA Satellite Orbit:

Table of predicted SNOs for the next 14.0 days since TLE Epoch: 2/10/2018
Index Date (METOP-A) Time (METOP-A) Lat,Lon (METOP-A) SZA (METOP-A ) Date (TERRA) Time (TERRA) Lat,Lon (TERRA) SZA (TERRA ) Distance(km) Time Diff (sec)
1 02/11/2018 02:58:00 81.39,-175.29 97.95 02/11/2018 02:58:20 81.40,-175.48 97.94 3.04 20
2 02/11/2018 03:48:40 -81.39, -7.80 82.05 02/11/2018 03:47:47 -81.39, -7.92 82.09 1.94 53
3 02/13/2018 22:32:18 81.39,-109.11 96.99 02/13/2018 22:32:34 81.39,-109.09 97.00 0.22 16
4 02/13/2018 23:22:58 -81.39, 58.40 83.01 02/13/2018 23:22:01 -81.39, 58.50 83.03 1.63 57
5 02/16/2018 18:06:37 81.39, -42.94 96.00 02/16/2018 18:06:49 81.38, -42.82 96.01 2.07 12
6 02/16/2018 18:57:16 -81.39, 124.99 83.95 02/16/2018 18:56:16 -81.38, 124.80 84.00 3.31 60
7 02/19/2018 13:40:55 81.39, 23.62 95.04 02/19/2018 13:41:03 81.39, 23.74 95.05 1.95 8
8 02/19/2018 14:31:34 -81.40,-168.44 84.92 02/19/2018 14:30:30 -81.39,-168.62 84.97 3.01 64
9 02/22/2018 09:15:12 81.39, 90.16 94.05 02/22/2018 09:15:16 81.39, 90.19 94.05 0.46 4




NCC Satellite Simultaneous Nadir Overpasses (SNOs) Prediction Service
